User: anonymous   Login
Location: Caltech
(34.1382°N, 118.1253°W)
Time: 08:35:22
(UTC-08:00)
Language:

SO-67 - Orbit

View from above orbital plane
View from above orbital plane
View from above satellite
View from above satellite

Ground track
Ground track

The orbit data is extracted from the following two-line orbital elements,

1 35870U 09049F   16340.08535928  .00005608  00000-0  97553-4 0  9991
2 35870  97.1113 352.7956 0003907  71.9964 342.0098 15.51184620403117
Epoch (UTC): 05 December 2016 02:02:55
Eccentricity: 0.0003907
inclination: 97.1113°
perigee height: 410 km
apogee height: 416 km
right ascension of ascending node: 352.7956°
argument of perigee: 71.9964°
revolutions per day: 15.51184620
mean anomaly at epoch: 342.0098°
orbit number at epoch: 40311

The dashed part of the orbit path shows where the satellite is in the earth's shadow,  

DLR